SCP
5 4 4 4 4 4 3 2 2 3 2 2 2 2 1 2 2 3 2 2 2 2 2 2 1 1 1 1 1 1 1 0 0 0 0 1 1 1 1 0 0 0 0
4 4 4 3 3 3 2 2 2 2 2 2 2 1 1 2 2 2 2 2 2 2 2 1 1 1 1 1 1 1 1 1 1 0 0 1 1 1 1 0 0 0 0
3 3 3 3 3 2 2 2 2 2 2 2 2 1 1 1 1 2 2 2 1 1 1 1 1 2 1 1 1 1 1 1 1 0 0 0 0 1 1 1 0 0 0
2 2 2 2 2 2 2 1 1 1 1 2 2 1 1 1 1 1 1 1 1 1 1 1 1 1 1 1 1 1 1 0 0 0 0 0 0 0 1 1 1 1 0
2 2 2 2 2 2 2 1 1 1 1 2 2 1 1 1 1 1 1 1 1 1 1 1 1 1 1 1 1 1 1 0 0 0 0 0 0 0 1 1 1 1 1
1 1 1 2 2 2 1 1 1 1 1 2 2 1 1 1 0 0 0 0 0 1 1 1 0 0 0 0 0 0 0 0 0 0 0 0 0 0 0 1 1 1 0
1 1 1 1 2 1 1 1 1 1 2 2 2 1 1 1 0 0 0 0 0 0 0 0 0 0 0 0 0 0 0 0 0 0 0 0 0 0 0 0 0 0 0
1 1 1 1 1 1 1 2 1 1 1 1 1 1 1 1 0 0 0 0 0 0 0 0 0 0 0 0 0 0 0 0 0 0 0 0 0 0 0 0 0 0 0
1 1 1 1 1 1 1 1 1 1 1 1 1 1 1 1 0 0 0 0 0 1 1 1 1 0 0 0 0 0 0 0 0 0 0 0 0 0 0 0 0 0 0
1 1 1 1 1 1 1 1 1 1 1 1 1 1 1 1 0 0 0 0 0 1 1 1 1 0 0 0 0 0 0 0 0 0 0 0 0 0 0 0 0 0 0
1 1 1 1 1 1 1 1 1 1 1 1 1 1 1 1 0 0 0 0 0 0 1 1 1 0 0 0 0 0 0 0 0 0 0 0 0 0 0 0 0 0 0
0 1 1 1 1 1 1 1 1 1 1 1 1 1 1 1 1 0 0 0 0 0 0 0 0 0 0 0 0 0 0 0 0 0 0 0 0 1 1 1 0 0 0
1 1 1 1 1 1 1 1 1 1 1 1 1 1 1 1 1 0 0 0 0 0 0 0 0 0 0 0 0 0 0 0 0 0 0 0 0 1 1 1 1 0 0
1 1 1 1 1 1 1 1 1 1 0 0 0 0 0 0 0 0 0 0 0 0 0 0 1 1 1 1 1 1 1 1 1 1 1 1 1 1 1 1 0 0 0
1 0 0 1 1 1 1 1 0 0 0 0 0 0 0 0 0 0 0 0 0 0 0 0 1 1 1 1 1 1 1 1 1 1 1 1 1 0 0 0 0 0 0
0 0 0 0 0 0 0 0 0 0 0 0 0 0 0 0 0 0 0 0 0 0 0 0 0 0 0 0 1 1 1 1 1 1 0 0 0 0 0 0 0 0 0
0 0 0 0 0 0 0 0 0 0 0 0 0 0 0 0 0 0 0 0 0 0 0 0 0 0 0 0 0 0 0 0 0 0 0 0 0 0 0 0 0 0 0
0 0 0 0 0 0 0 0 0 0 0 0 0 0 0 0 0 0 0 0 0 0 0 0 0 0 0 0 0 0 0 0 0 0 0 0 0 0 0 0 0 0 0
0 0 0 0 0 0 0 0 0 0 0 0 0 0 0 0 0 0 0 0 0 0 0 0 0 0 0 0 0 0 0 0 0 0 0 0 0 0 0 0 0 0 0
0 0 0 0 0 0 0 0 0 0 0 0 0 0 0 0 0 0 0 0 0 0 0 0 0 0 0 0 0 0 0 0 0 0 0 0 0 0 0 0 0 0 0
0 0 0 0 0 0 0 0 0 0 0 0 0 0 0 0 0 0 0 0 0 0 0 0 0 0 0 0 0 0 0 0 0 0 0 0 0 0 0 0 0 0 0
0 0 0 0 0 0 0 0 0 0 0 0 0 0 0 0 0 1 1 0 0 0 0 0 0 0 0 0 0 0 0 0 0 0 0 0 0 0 0 0 0 0 0
0 0 0 0 0 0 0 0 0 0 0 0 0 0 0 0 1 1 0 0 0 0 0 0 0 0 0 0 0 0 0 0 0 0 0 0 0 0 0 0 0 0 0
0 0 0 0 0 0 0 0 0 0 0 0 0 0 0 0 1 0 0 0 0 0 0 0 0 0 0 0 0 0 0 0 0 0 0 0 0 0 0 0 0 0 0
0 0 0 0 0 0 0 0 0 0 0 0 1 1 1 0 0 0 0 0 0 0 0 0 0 0 0 0 0 0 0 0 0 0 0 0 0 0 0 0 0 0 0
0 0 0 0 0 0 0 0 0 0 0 1 1 1 1 0 0 0 0 0 0 0 0 0 0 0 0 0 0 0 0 0 0 0 0 0 0 0 0 0 0 0 0
Wind_Speed
2 2 1 1 2 2 2 2 2 2 2 3 3 3 3 4 3 2 3 4 3 4 4 4 4 4 3 3 3 3 3 3 5 4 3 3 3 3 3 2 3 3 4
2 2 2 1 1 2 2 2 2 2 3 3 3 3 4 4 3 3 4 4 3 4 4 4 4 4 4 3 3 4 3 4 4 5 4 3 4 4 4 4 4 4 3
2 2 2 1 1 2 2 3 3 3 3 3 3 3 4 4 4 3 3 3 4 4 5 4 4 4 4 3 4 4 4 4 3 4 4 3 3 4 3 3 4 3 4
1 1 1 2 2 3 3 3 3 3 3 3 3 4 4 4 3 3 3 3 4 4 5 4 4 4 4 4 4 4 4 4 4 3 4 4 3 3 2 3 3 3 3
1 1 2 2 3 3 3 3 3 3 3 2 3 4 4 3 2 3 3 5 4 5 5 5 5 5 5 5 4 3 4 3 3 3 3 3 3 2 2 3 3 2 2
1 2 2 2 2 3 3 3 3 2 3 3 3 4 3 3 2 3 4 5 5 5 5 5 5 4 5 6 7 7 7 5 4 4 4 4 4 3 3 3 2 2 2
1 2 2 2 2 3 3 2 2 2 3 3 4 3 2 1 1 3 5 5 6 6 5 4 5 4 4 4 6 8 8 9 8 5 5 5 4 4 3 4 3 3 4
1 2 2 2 2 2 2 2 2 2 3 3 4 3 2 2 2 4 6 6 6 5 5 4 4 3 4 4 5 5 4 4 5 5 5 6 5 4 3 4 5 4 4
1 2 2 2 2 2 2 2 2 3 3 4 3 2 2 2 3 4 5 5 5 5 5 4 2 2 3 4 4 4 5 4 5 6 6 7 7 8 5 3 4 3 4
1 1 1 1 3 3 2 2 3 3 3 4 3 2 2 1 3 5 5 4 5 5 4 2 2 2 3 3 3 4 5 5 5 5 5 5 5 6 8 6 4 4 3
1 1 1 1 2 2 2 2 3 3 4 4 3 3 2 2 2 4 5 3 4 5 4 3 2 2 4 5 5 4 6 6 6 6 5 4 4 3 3 4 4 4 4
1 1 1 1 3 2 2 3 3 3 3 4 3 3 1 0 1 2 3 4 5 4 4 4 3 6 7 8 6 7 9 7 4 4 4 4 4 3 3 3 4 4 5
1 2 2 2 2 2 2 2 2 2 2 3 2 2 2 2 1 2 3 5 5 3 4 6 8 10 9 7 7 8 6 4 3 4 4 4 4 3 3 3 3 4 5
1 2 2 2 2 2 1 2 2 2 2 3 3 3 3 2 2 3 3 3 5 4 4 6 8 8 6 6 6 5 4 3 3 4 4 4 3 3 2 2 2 2 3
1 2 3 3 2 1 1 1 1 2 1 1 2 2 3 3 3 4 4 4 4 5 6 4 4 4 4 3 3 3 2 2 3 3 3 3 3 3 3 2 2 2 3
1 2 2 2 2 1 0 1 2 1 1 1 1 1 1 2 4 6 7 7 6 6 4 4 4 4 5 5 4 4 4 3 3 3 3 4 3 3 3 4 3 3 3
1 2 3 3 3 2 1 0 1 1 1 2 2 2 2 4 6 7 8 8 8 4 2 4 4 4 4 5 4 4 4 4 3 3 3 3 3 3 3 3 3 3 3
2 1 3 3 2 2 2 1 0 0 1 1 0 1 2 3 4 6 6 5 4 3 3 4 4 4 4 4 4 4 4 5 4 4 4 4 4 4 4 4 3 4 4
2 2 2 2 3 3 2 1 2 2 2 2 2 2 1 2 3 4 3 3 4 4 4 4 4 4 4 4 5 5 5 5 5 5 5 5 5 5 5 5 4 5 5
1 2 3 3 3 3 2 2 3 3 3 3 3 3 2 2 2 2 2 2 4 4 5 5 4 5 5 5 5 5 5 5 6 5 6 6 6 5 5 6 5 5 4
1 1 2 2 2 2 3 3 3 3 3 2 3 3 2 3 3 3 4 4 4 5 5 5 5 5 5 5 6 7 7 6 6 7 6 6 7 6 5 5 5 5 5
2 0 1 1 2 2 3 3 3 4 4 4 3 3 2 3 4 5 5 5 5 5 5 5 6 6 6 6 6 6 6 7 7 8 8 7 7 6 6 6 5 5 5
2 1 1 1 1 2 2 3 3 4 4 4 4 4 4 5 5 6 6 5 5 5 5 5 5 6 6 6 6 6 6 6 7 8 8 8 8 7 6 6 7 6 6
2 1 2 2 2 2 2 3 4 4 5 5 5 5 5 5 6 6 6 5 6 6 5 5 6 8 10 7 6 6 7 7 8 7 9 8 8 7 7 7 7 7 6
2 2 2 3 3 3 4 4 4 5 5 5 5 5 6 6 6 6 6 6 6 6 7 7 6 8 10 12 11 9 8 9 8 8 7 6 7 8 7 7 6 6 6
1 2 2 2 3 3 3 4 4 5 5 5 5 5 5 6 6 6 6 6 6 6 7 6 9 10 12 10 11 10 9 10 10 10 8 6 6 7 8 6 7 6 6
Wind_Direction
174 167 178 204 217 218 238 245 245 255 263 263 263 256 260 261 259 255 265 270 269 276 283 284 283 280 271 267 271 272 268 268 273 277 272 276 274 266 265 256 246 213 208
173 167 174 209 220 229 257 259 255 262 263 261 263 269 270 269 265 258 265 279 281 284 283 284 286 285 279 271 270 276 274 269 270 277 279 275 266 254 245 240 252 239 217
149 162 170 203 235 247 258 265 258 261 262 268 268 268 271 274 275 273 271 280 283 284 285 285 287 282 274 273 273 278 278 280 274 273 278 273 270 267 256 252 255 244 242
129 173 194 230 249 252 254 257 263 263 258 262 267 270 273 278 285 295 301 295 289 290 292 292 286 281 278 277 275 276 285 290 281 274 273 275 272 267 258 251 258 247 246
217 242 233 238 245 252 255 257 264 265 264 264 274 275 272 273 299 323 313 298 297 296 291 289 291 286 278 268 277 285 292 290 292 286 282 285 282 275 265 256 261 261 255
241 257 254 250 264 268 260 252 255 265 276 276 276 279 285 304 342 332 310 304 295 288 289 292 293 283 281 265 261 261 260 268 280 284 281 284 286 286 287 278 277 277 271
238 263 262 257 273 284 281 279 283 284 286 286 280 279 278 301 300 304 302 294 288 286 287 287 295 305 314 298 277 263 256 252 244 257 273 279 281 283 288 285 275 265 266
236 253 258 269 289 286 282 295 304 299 290 288 283 277 267 274 265 284 296 282 280 286 283 276 280 292 306 304 295 295 280 266 252 246 251 258 263 264 268 272 272 269 265
229 258 267 292 306 304 302 311 305 295 289 284 280 278 265 255 250 266 281 286 284 285 284 286 291 300 317 315 306 302 301 294 286 271 259 261 260 261 256 269 268 261 265
259 278 292 314 311 311 322 311 305 296 291 285 283 280 270 256 235 252 271 285 295 296 291 282 292 294 299 306 301 301 300 301 307 301 287 275 264 259 245 234 250 257 261
293 297 269 285 291 292 303 292 290 291 291 287 282 275 258 234 239 255 266 280 295 305 314 319 330 329 305 291 286 275 273 288 294 287 277 268 260 256 249 232 230 240 254
339 340 332 302 304 331 304 289 286 289 295 291 284 286 288 239 266 279 280 276 289 301 309 320 332 323 302 288 279 271 279 289 281 282 284 281 272 262 258 254 245 242 242
356 350 337 326 318 304 297 303 304 299 295 306 328 347 359 23 11 343 313 308 302 292 301 307 306 300 297 289 270 268 273 270 272 279 282 284 279 268 255 255 257 252 255
349 342 322 314 307 307 297 301 311 336 355 359 8 5 11 16 14 10 345 333 327 322 320 308 301 293 285 279 284 274 255 259 270 276 283 283 281 278 269 265 263 264 265
2 337 312 304 298 305 324 332 327 17 36 11 356 355 356 357 354 337 327 329 332 342 331 310 307 314 313 311 306 301 298 302 292 290 297 305 309 309 300 287 270 268 270
335 321 310 310 302 289 324 18 58 131 128 169 220 275 339 319 312 324 326 322 322 329 329 315 323 328 336 343 343 346 349 353 342 337 332 323 317 319 315 305 297 286 280
323 320 312 316 314 310 293 355 71 95 266 287 278 276 268 290 313 318 323 328 323 326 324 327 334 338 345 349 351 352 347 341 335 331 330 324 317 310 302 301 302 301 295
290 291 292 301 313 328 340 2 34 45 43 48 288 235 238 261 294 309 327 340 336 349 347 345 346 350 352 346 344 346 344 346 347 340 338 338 333 324 316 309 306 303 299
293 308 306 316 325 333 340 345 19 35 42 49 50 57 202 257 282 302 328 334 337 350 357 359 360 358 353 347 346 351 351 349 349 345 342 336 331 327 324 319 315 314 304
262 302 306 310 320 329 351 17 24 24 31 33 38 39 29 20 4 5 5 345 347 359 5 2 1 358 354 352 355 356 353 351 349 347 341 333 325 322 321 320 320 317 310
252 197 247 302 324 354 8 14 17 15 15 28 60 58 15 360 5 12 11 15 11 9 8 2 4 3 1 359 1 358 356 355 351 343 336 330 327 325 318 313 313 315 314
309 354 129 8 6 27 16 8 12 14 14 22 37 42 24 1 16 24 23 22 20 15 15 10 6 6 5 3 2 360 358 356 348 339 332 326 322 321 321 318 320 323 324
302 356 61 46 27 51 19 8 17 19 20 22 27 31 26 20 23 29 27 24 17 15 13 12 11 15 16 12 11 11 4 351 336 327 325 324 323 321 321 324 326 329 334
316 358 10 37 44 37 19 19 27 23 25 28 30 31 30 33 30 29 27 23 18 15 13 15 15 15 17 12 7 14 11 350 334 327 325 322 323 323 327 330 330 335 335
328 13 22 36 34 31 28 29 28 26 26 28 29 29 30 36 36 31 26 20 19 15 14 17 16 14 13 15 16 12 1 350 344 334 321 320 326 327 330 333 336 337 339
349 13 26 43 46 39 33 28 29 28 25 25 30 36 34 35 36 31 24 19 15 15 14 17 22 24 17 17 15 7 356 347 341 335 326 327 337 342 340 337 345 348 351